TimeCET,TemperatureF,Dew PointF,Humidity,Sea Level PressureIn,VisibilityMPH,Wind Direction,Wind SpeedMPH,Gust SpeedMPH,PrecipitationIn,Events,Conditions,WindDirDegrees,DateUTC
12:00 AM,28.4,21.2,74,30.42,6.2,Variable,1.2,-,N/A,,Mostly Cloudy,0,2013-11-27 23:00:00
1:00 AM,30.2,21.2,69,30.42,6.2,Calm,Calm,-,N/A,,Overcast,0,2013-11-28 00:00:00
2:00 AM,30.2,23.0,75,30.39,6.2,Calm,Calm,-,N/A,,Overcast,0,2013-11-28 01:00:00
3:00 AM,30.2,24.8,80,30.39,6.2,East,2.3,-,N/A,,Overcast,90,2013-11-28 02:00:00
4:00 AM,30.2,24.8,80,30.36,6.2,ESE,2.3,-,N/A,,Overcast,120,2013-11-28 03:00:00
5:00 AM,30.2,26.6,86,30.33,6.2,ESE,2.3,-,N/A,,Overcast,120,2013-11-28 04:00:00
6:00 AM,30.2,24.8,80,30.33,6.2,Calm,Calm,-,N/A,,Overcast,0,2013-11-28 05:00:00
6:19 AM,30.2,26.6,86,30.33,6.2,Calm,Calm,-,N/A,Rain,Light Freezing Rain,0,2013-11-28 05:19:00
7:00 AM,30.2,26.6,86,30.33,6.2,Calm,Calm,-,N/A,Rain,Light Freezing Rain,0,2013-11-28 06:00:00
7:17 AM,30.2,28.4,93,30.33,1.9,Variable,2.3,-,N/A,Rain,Freezing Rain,0,2013-11-28 06:17:00
7:45 AM,30.2,28.4,93,30.33,2.2,Variable,1.2,-,N/A,Rain,Freezing Rain,0,2013-11-28 06:45:00
8:00 AM,30.2,28.4,93,30.33,2.5,West,2.3,-,N/A,,Overcast,280,2013-11-28 07:00:00
8:22 AM,32.0,30.2,93,30.33,3.1,Variable,2.3,-,N/A,,Overcast,0,2013-11-28 07:22:00
8:40 AM,32.0,30.2,93,30.33,3.7,Variable,1.2,-,N/A,,Overcast,0,2013-11-28 07:40:00
9:00 AM,32.0,30.2,93,30.33,3.7,Variable,2.3,-,N/A,,Overcast,0,2013-11-28 08:00:00
9:19 AM,32.0,30.2,93,30.33,3.1,Variable,2.3,-,N/A,,Drizzle,0,2013-11-28 08:19:00
9:32 AM,32.0,30.2,93,30.33,2.5,West,3.5,-,N/A,,Light Drizzle,270,2013-11-28 08:32:00
9:50 AM,33.8,30.2,87,30.33,3.7,West,4.6,-,N/A,,Light Drizzle,280,2013-11-28 08:50:00
10:00 AM,33.8,30.2,87,30.33,3.7,West,4.6,-,N/A,,Light Drizzle,280,2013-11-28 09:00:00
10:04 AM,33.8,32.0,93,30.30,2.5,West,4.6,-,N/A,,Light Drizzle,280,2013-11-28 09:04:00
10:16 AM,33.8,32.0,93,30.30,1.9,West,4.6,-,N/A,,Light Drizzle,280,2013-11-28 09:16:00
10:38 AM,33.8,32.0,93,30.30,1.2,West,6.9,-,N/A,,Light Drizzle,270,2013-11-28 09:38:00
11:00 AM,33.8,32.0,93,30.30,1.2,WNW,5.8,-,N/A,,Light Drizzle,290,2013-11-28 10:00:00
12:00 PM,33.8,32.0,93,30.30,1.9,West,8.1,-,N/A,,Light Drizzle,270,2013-11-28 11:00:00
12:32 PM,35.6,33.8,93,30.27,4.3,West,9.2,-,N/A,,Overcast,260,2013-11-28 11:32:00
1:00 PM,35.6,33.8,93,30.27,5.0,West,6.9,-,N/A,,Overcast,270,2013-11-28 12:00:00
2:00 PM,37.4,33.8,87,30.24,6.2,West,9.2,-,N/A,,Overcast,270,2013-11-28 13:00:00
3:00 PM,37.4,33.8,87,30.21,6.2,West,10.4,-,N/A,,Overcast,260,2013-11-28 14:00:00
4:00 PM,37.4,33.8,87,30.24,6.2,West,11.5,-,N/A,,Overcast,260,2013-11-28 15:00:00
5:00 PM,37.4,33.8,87,30.24,6.2,WSW,9.2,-,N/A,,Overcast,250,2013-11-28 16:00:00
6:00 PM,39.2,32.0,75,30.24,6.2,West,11.5,-,N/A,,Overcast,270,2013-11-28 17:00:00
7:00 PM,37.4,33.8,87,30.24,6.2,West,12.7,-,N/A,,Overcast,260,2013-11-28 18:00:00
8:00 PM,37.4,33.8,87,30.24,6.2,West,10.4,-,N/A,,Overcast,260,2013-11-28 19:00:00
9:00 PM,37.4,33.8,87,30.24,6.2,West,12.7,-,N/A,Rain,Light Rain,270,2013-11-28 20:00:00
10:00 PM,37.4,33.8,87,30.24,6.2,West,9.2,-,N/A,Rain,Light Rain,280,2013-11-28 21:00:00
11:00 PM,37.4,33.8,87,30.24,6.2,West,10.4,-,N/A,,Overcast,270,2013-11-28 22:00:00